Weather History for Cape Girardeau, MO

Change the Weather History Date:

Monday, June 17, 2013

  Actual Average Record
Temperature  
Mean Temperature 76 °F 76 °F  
Max Temperature 86 °F 87 °F 98 °F (1990)
Min Temperature 66 °F 65 °F 48 °F (1961)
Degree Days  
Heating Degree Days 0 0  
Month to date heating degree days 0 1  
Since 1 June heating degree days 0 1  
Since 1 July heating degree days 4359 4387  
Cooling Degree Days 11 11  
Month to date cooling degree days 142 151  
Year to date cooling degree days 313 303  
Since 1 June cooling degree days 142 151  
Growing Degree Days 25 (Base 50)    
Moisture  
Dew Point 69 °F    
Average Humidity 79    
Maximum Humidity 93    
Minimum Humidity 65    
Precipitation  
Precipitation 1.67 in 0.12 in 1.67 in (2013)
Month to date precipitation 5.40 2.09  
Year to date precipitation 21.57 23.19  
Sea Level Pressure  
Sea Level Pressure 29.92 in    
Wind  
Wind Speed 5 mph (ENE)    
Max Wind Speed 22 mph    
Max Gust Speed 26 mph    
Visibility 5 miles    
Events Rain    
T = Trace of Precipitation, MM = Missing Value Source: NWS Daily Summary

Daily Weather History Graph

Daily Weather History Graph

Search for Another Location

Airport:

Trip Planner

Search our weather history database for the weather conditions in past years. The results will help you decide how hot, cold, wet, or windy it might be!

Date:

Astronomy

Jun. 17, 2013 Rise Set
Actual Time 5:37 AM CDT 8:20 PM CDT
Civil Twilight 5:06 AM CDT 8:51 PM CDT
Nautical Twilight 4:27 AM CDT 9:30 PM CDT
Astronomical Twilight 3:44 AM CDT 10:14 PM CDT
Moon 2:06 PM CDT (6/17) 1:06 AM CDT (6/17)
Length of Visible Light 15h 45m
Length of Day
14h 43m
First Quarter, 60% of the Moon is Illuminated
Jun 17
First Quarter
Jun 23
Full
Jun 29
Last Quarter
Jul 8
New
Jul 15
First Quarter

Hourly Weather History & Observations

Time (CDT) Temp. Heat Index Dew Point Humidity Pressure Visibility Wind Dir Wind Speed Gust Speed Precip Events Conditions
1:53 AM 73.9 °F - 70.0 °F 87% 29.93 in 10.0 mi Calm Calm - N/A   Clear
2:53 AM 73.0 °F - 69.1 °F 87% 29.92 in 9.0 mi Calm Calm - N/A   Clear
3:53 AM 72.0 °F - 70.0 °F 93% 29.92 in 5.0 mi Calm Calm - N/A   Clear
4:53 AM 72.0 °F - 70.0 °F 93% 29.91 in 6.0 mi ESE 3.5 mph - N/A   Mostly Cloudy
5:53 AM 71.1 °F - 69.1 °F 93% 29.93 in 5.0 mi Calm Calm - N/A   Clear
6:53 AM 73.0 °F - 71.1 °F 93% 29.94 in 4.0 mi SSE 3.5 mph - N/A   Clear
7:53 AM 79.0 °F - 72.0 °F 79% 29.92 in 6.0 mi Calm Calm - N/A   Haze
8:53 AM 81.0 °F 85.2 °F 72.0 °F 74% 29.91 in 8.0 mi Calm Calm - N/A   Clear
9:53 AM 84.0 °F 89.0 °F 71.1 °F 65% 29.91 in 9.0 mi Variable 3.5 mph - N/A   Clear
10:53 AM 84.9 °F 90.7 °F 72.0 °F 65% 29.91 in 9.0 mi South 8.1 mph - N/A   Partly Cloudy
11:53 AM 75.9 °F - 64.9 °F 69% 29.94 in 6.0 mi NE 11.5 mph - 0.00 in Rain Light Rain
12:20 PM 69.8 °F - 66.2 °F 88% 29.97 in 1.5 mi NNE 12.7 mph 24.2 mph 0.12 in Rain Heavy Rain
12:31 PM 69.8 °F - 66.2 °F 88% 29.94 in 1.0 mi ENE 17.3 mph - 0.29 in Rain Heavy Rain
12:53 PM 69.1 °F - 66.9 °F 93% 29.94 in 0.8 mi ENE 10.4 mph - 0.80 in Rain Heavy Rain
1:04 PM 69.8 °F - 68.0 °F 94% 29.94 in 1.0 mi NE 9.2 mph - 0.17 in Rain Heavy Rain
1:18 PM 69.8 °F - 68.0 °F 94% 29.94 in 2.0 mi ENE 9.2 mph - 0.26 in Rain Light Rain
1:20 PM 69.8 °F - 68.0 °F 94% 29.94 in 3.0 mi NE 9.2 mph - 0.26 in Rain Light Rain
1:53 PM 72.0 °F - 68.0 °F 87% 29.91 in 9.0 mi SE 5.8 mph - 0.29 in   Overcast
2:53 PM 72.0 °F - 69.1 °F 91% 29.91 in 8.0 mi NNE 5.8 mph - 0.00 in   Overcast
3:19 PM 73.4 °F - 69.8 °F 88% 29.94 in 1.8 mi North 3.5 mph - 0.03 in Rain Light Rain
3:38 PM 71.6 °F - 69.8 °F 94% 29.93 in 2.5 mi NE 6.9 mph - 0.09 in Rain Rain
3:45 PM 71.6 °F - 69.8 °F 94% 29.93 in 3.0 mi ENE 6.9 mph - 0.09 in Rain Rain
3:53 PM 72.0 °F - 70.0 °F 93% 29.92 in 3.0 mi ENE 8.1 mph - 0.10 in Rain Light Rain
3:56 PM 71.6 °F - 69.8 °F 94% 29.93 in 3.0 mi NE 8.1 mph - 0.00 in Rain Rain
4:07 PM 71.6 °F - 69.8 °F 94% 29.93 in 4.0 mi NE 9.2 mph - 0.01 in Rain Light Rain
4:15 PM 71.6 °F - 69.8 °F 94% 29.93 in 1.8 mi ENE 9.2 mph - 0.09 in Rain Heavy Rain
4:21 PM 71.6 °F - 69.8 °F 94% 29.92 in 1.0 mi East 8.1 mph - 0.17 in Rain Heavy Rain
4:29 PM 71.6 °F - 69.8 °F 94% 29.92 in 1.5 mi East 5.8 mph - 0.20 in Rain Heavy Rain
4:40 PM 71.6 °F - 69.8 °F 94% 29.92 in 2.5 mi East 4.6 mph - 0.21 in Rain Light Rain
4:49 PM 71.6 °F - 71.6 °F 100% 29.92 in 5.0 mi ENE 4.6 mph - 0.21 in Rain Light Rain
4:53 PM 72.0 °F - 71.1 °F 97% 29.91 in 5.0 mi ENE 5.8 mph - 0.21 in   Overcast
5:53 PM 72.0 °F - 70.0 °F 93% 29.89 in 8.0 mi NE 5.8 mph - 0.00 in Rain Light Rain
6:16 PM 71.6 °F - 69.8 °F 94% 29.90 in 8.0 mi NE 8.1 mph - 0.00 in Rain Light Rain
6:35 PM 71.6 °F - 69.8 °F 94% 29.91 in 1.8 mi NE 5.8 mph - 0.07 in Rain Heavy Rain
6:46 PM 71.6 °F - 69.8 °F 94% 29.92 in 2.5 mi Calm Calm - 0.09 in Rain Rain
6:53 PM 71.1 °F - 69.1 °F 93% 29.92 in 2.5 mi North 3.5 mph - 0.10 in Rain Rain
7:13 PM 69.8 °F - 66.2 °F 88% 29.94 in 2.5 mi NNE 17.3 mph 26.5 mph 0.04 in Rain Rain
7:27 PM 69.8 °F - 66.2 °F 88% 29.94 in 3.0 mi NNE 15.0 mph - 0.06 in Rain Rain
7:53 PM 69.1 °F - 66.9 °F 93% 29.94 in 3.0 mi NNE 11.5 mph - 0.12 in Rain Rain
8:53 PM 66.9 °F - 63.0 °F 87% 29.92 in 10.0 mi North 4.6 mph - 0.05 in Rain Light Rain
9:53 PM 66.9 °F - 63.0 °F 87% 29.91 in 10.0 mi Calm Calm - 0.00 in   Clear
10:53 PM 66.9 °F - 64.0 °F 90% 29.90 in 10.0 mi East 3.5 mph - N/A   Partly Cloudy
11:53 PM 66.0 °F - 64.0 °F 93% 29.88 in 10.0 mi East 8.1 mph - N/A   Clear